Location: Colonia Mina de C?rbuni
(46.1667°N, 22.7167°E)
Time: 14:46:09
(UTC+00:00)

Courier 1B - Pass Details

Date: 22 April 2024
Orbit: 962 x 1208 km, 28.3° (Epoch: 23 May)

Event Time Altitude Azimuth Distance (km) Brightness Sun altitude
Rises 00:54:25 0° 233° (SW) 3,999 - -22.9°
Reaches altitude 10° 00:58:19 10° 215° (SW) 2,993 - -22.4°
Maximum altitude 01:02:52 18° 176° (S) 2,415 - -21.9°
Exits shadow 01:03:53 17° 166° (SSE) 2,433 9.3 -21.8°
Drops below altitude 10° 01:07:16 10° 137° (SE) 2,877 9.9 -21.4°
Sets 01:10:54 0° 119° (ESE) 3,783 10.8 -21.0°
